Castlebar Airport

Jump to: basic info | weather | comments

Related pages: nearby airports | nearby navaids | notams | map

Basic information (top)

Codes: CLB EICB
Location: lon 53.848400, lat -9.280370
Status: small_airport

Weather (top)

Current conditions for Ireland West Knock Airport 17nm (31km) ENE (rec'd 2014/09/02 16:30Z):

EIKN 021630Z 19003KT 9999 SCT024 BKN035 14/09 Q1022 NOSIG

Airport forecast for Ireland West Knock Airport 17nm (31km) ENE (rec'd 2014/09/02 12:25Z):

TAF EIKN 021100Z 0212/0312 19007KT 9999 OVC028 
      BECMG 0220/0222 VRB03KT PROB30 
      TEMPO 0305/0308 4000 BR 
      BECMG 0310/0312 13007KT

Latest comments (top)

No longer exists.: This airport was closed in 2001 and the ... [read]

fv: fg [read]

More... (top)

See also NOTAMs and nearby airports and navaids, or visit the Castlebar Airport page at the main OurAirports website..